Spokane, WA

11:28 AM PST on February 10, 2016 (GMT -0800)
Spokane International

Weather History for KGEG - October, 2010

Change the Weather History Date:

Wednesday, October 27, 2010

  Actual Average Record
Temperature  
Mean Temperature 43 °F 43 °F  
Max Temperature 47 °F 52 °F 73 °F (1944)
Min Temperature 39 °F 34 °F 19 °F (1991)
Degree Days  
Heating Degree Days 22 22  
Month to date heating degree days 384 450  
Since 1 July heating degree days 637 698  
Cooling Degree Days 0 0  
Month to date cooling degree days 4 0  
Year to date cooling degree days 380 449  
Moisture  
Dew Point 36 °F    
Average Humidity 79    
Maximum Humidity 92    
Minimum Humidity 65    
Precipitation  
Precipitation 0.00 in 0.05 in 0.85 in (1994)
Month to date precipitation 1.11 0.95  
Year to date precipitation 12.31 11.73  
Snow  
Snow 0.00 in 0.10 in 1.10 in (1984)
Month to date snowfall 0.0 0.1  
Since 1 July snowfall 0.0 0.1  
Since 1 September snowfall 0.0 0.1  
Snow Depth -    
Sea Level Pressure  
Sea Level Pressure 30.20 in    
Wind  
Wind Speed 8 mph (ESE)    
Max Wind Speed 14 mph    
Max Gust Speed 16 mph    
Visibility 10 miles    
Events      
T = Trace of Precipitation, MM = Missing Value Source: NWS Daily Summary

Daily Weather History Graph

Daily Weather History Graph

Search for Another Location

Airport or City:

Trip Planner

Search our weather history database for the weather conditions in past years. The results will help you decide how hot, cold, wet, or windy it might be!

Date:

Astronomy

Oct. 27, 2010 Rise Set
Actual Time 7:26 AM PDT 5:40 PM PDT
Civil Twilight 6:54 AM PDT 6:12 PM PDT
Nautical Twilight 6:18 AM PDT 6:48 PM PDT
Astronomical Twilight 5:43 AM PDT 7:23 PM PDT
Moon 8:53 PM PDT (10/27) 12:20 PM PDT (10/27)
Length of Visible Light 11h 17m
Length of Day
10h 13m
Waning Gibbous, 78% of the Moon is Illuminated
Oct 27
Waning Gibbous
Oct 30
Last Quarter
Nov 5
New
Nov 13
First Quarter
Nov 21
Full

Hourly Weather History & Observations

Time (PDT) Temp. Windchill Dew Point Humidity Pressure Visibility Wind Dir Wind Speed Gust Speed Precip Events Conditions
12:53 AM 39.9 °F 35.1 °F 36.0 °F 86% 30.11 in 10.0 mi South 6.9 mph - N/A   Overcast
1:53 AM 39.9 °F 34.5 °F 36.0 °F 86% 30.12 in 10.0 mi South 8.1 mph - N/A   Overcast
2:53 AM 39.0 °F 34.0 °F 36.0 °F 89% 30.13 in 10.0 mi SSE 6.9 mph - N/A   Overcast
3:53 AM 39.0 °F 34.8 °F 36.0 °F 89% 30.14 in 10.0 mi SSE 5.8 mph - N/A   Overcast
4:53 AM 39.9 °F - 37.0 °F 89% 30.15 in 10.0 mi Calm Calm - N/A   Overcast
5:53 AM 39.9 °F 36.7 °F 36.0 °F 86% 30.17 in 10.0 mi SSE 4.6 mph - N/A   Overcast
6:53 AM 39.9 °F 36.7 °F 36.0 °F 86% 30.19 in 10.0 mi SSE 4.6 mph - N/A   Overcast
7:53 AM 39.9 °F 35.1 °F 36.0 °F 86% 30.21 in 10.0 mi SSE 6.9 mph - N/A   Overcast
8:53 AM 39.9 °F 35.8 °F 37.0 °F 89% 30.24 in 10.0 mi SSE 5.8 mph - N/A   Overcast
9:53 AM 41.0 °F 37.1 °F 37.0 °F 86% 30.25 in 10.0 mi South 5.8 mph - N/A   Overcast
10:53 AM 43.0 °F 38.2 °F 37.0 °F 80% 30.26 in 10.0 mi South 8.1 mph - N/A   Overcast
11:53 AM 44.1 °F 39.0 °F 37.0 °F 76% 30.27 in 10.0 mi South 9.2 mph - N/A   Mostly Cloudy
12:53 PM 46.0 °F 43.9 °F 37.0 °F 71% 30.26 in 10.0 mi Variable 4.6 mph - N/A   Mostly Cloudy
1:53 PM 46.9 °F - 36.0 °F 66% 30.24 in 10.0 mi ESE 9.2 mph - N/A   Mostly Cloudy
2:53 PM 46.0 °F 41.9 °F 36.0 °F 68% 30.23 in 10.0 mi SE 8.1 mph - N/A   Overcast
3:53 PM 46.0 °F 41.0 °F 36.0 °F 68% 30.23 in 10.0 mi ESE 10.4 mph - N/A   Overcast
4:53 PM 46.9 °F - 36.0 °F 66% 30.23 in 10.0 mi East 8.1 mph - N/A   Mostly Cloudy
5:53 PM 44.1 °F 40.1 °F 36.0 °F 73% 30.22 in 10.0 mi ENE 6.9 mph - N/A   Scattered Clouds
6:53 PM 42.1 °F 36.6 °F 36.0 °F 79% 30.22 in 10.0 mi ENE 9.2 mph - N/A   Scattered Clouds
7:53 PM 42.1 °F 35.7 °F 35.1 °F 76% 30.21 in 10.0 mi ENE 11.5 mph - N/A   Scattered Clouds
8:53 PM 41.0 °F 35.8 °F 35.1 °F 79% 30.19 in 10.0 mi ENE 8.1 mph - N/A   Mostly Cloudy
9:53 PM 41.0 °F 34.7 °F 34.0 °F 76% 30.19 in 10.0 mi ENE 10.4 mph - N/A   Overcast
10:53 PM 39.9 °F 33.4 °F 34.0 °F 79% 30.17 in 10.0 mi ENE 10.4 mph - N/A   Overcast
11:53 PM 39.9 °F 32.9 °F 35.1 °F 83% 30.18 in 10.0 mi ENE 11.5 mph - N/A   Overcast